Location: Unspecified
(41.5000°N, 0.0000°E)
Time: 16:22:42
(UTC+00:00)

Vanguard 3 - Pass Details

Date: 21 June 2019
Orbit: 507 x 3264 km, 33.4° (Epoch: 17 July)

Event Time Altitude Azimuth Distance (km) Brightness Sun altitude
Rises 15:32:27 0° 267° (W) 4,271 11.7 42.9°
Reaches altitude 10° 15:36:20 10° 257° (WSW) 2,844 11.1 42.1°
Maximum altitude 15:41:37 27° 202° (SSW) 1,414 9.0 41.2°
Drops below altitude 10° 15:45:20 10° 143° (SE) 1,953 9.0 40.5°
Sets 15:47:31 0° 129° (SE) 2,711 9.5 40.1°
